RH
94 76 64 53 57 71 91 95 94 91 90 87 86 84 80 74 64 62 52 50 49 42 32 27 32 38 40 38 33 30 31 30 24 21 16 12 8 7 19 27 40 23 7
78 92 83 73 66 55 64 78 91 95 95 93 89 86 82 73 60 53 50 52 56 46 36 32 33 41 42 40 37 33 33 31 24 20 16 10 7 5 10 24 31 23 8
99 96 96 91 82 73 64 65 67 82 96 92 86 81 75 62 52 50 51 59 61 52 38 36 42 47 45 42 41 35 36 30 22 19 17 12 7 10 12 21 24 28 12
98 96 97 79 84 93 91 84 78 76 77 85 84 75 65 57 53 52 56 64 64 56 42 38 46 52 51 47 44 41 38 32 23 19 18 10 9 13 13 22 23 11 14
97 97 97 99 86 92 98 92 86 82 76 79 70 64 59 59 57 57 62 67 67 57 45 41 50 57 56 52 49 46 41 33 24 18 16 9 6 10 13 22 31 32 12
96 96 96 96 95 93 100 98 98 95 96 93 79 76 68 69 74 71 70 74 72 65 53 46 54 64 60 57 53 48 42 31 20 16 12 9 5 6 9 20 30 31 38
96 98 95 97 96 96 97 88 87 94 95 100 98 88 82 85 85 82 83 86 80 71 65 53 57 72 68 61 60 52 44 34 16 12 11 9 6 6 4 5 29 30 28
93 95 96 96 96 97 97 97 97 92 98 97 91 96 89 86 94 87 85 88 87 85 82 70 69 75 71 70 64 59 44 35 21 10 8 8 6 4 4 3 4 29 29
91 96 95 95 96 96 96 97 97 97 98 95 94 92 97 91 96 94 82 81 95 98 89 85 86 81 70 66 65 64 53 40 28 21 14 8 5 4 4 3 2 3 14
88 89 97 96 95 96 96 96 95 96 97 96 96 98 89 93 95 98 98 72 94 99 99 95 84 78 77 74 72 70 60 48 38 28 26 19 8 4 3 3 2 2 3
35 75 91 95 94 96 96 96 96 97 96 97 97 96 91 87 95 87 93 79 80 95 91 90 90 92 85 78 79 82 73 64 53 39 30 19 10 6 3 3 3 3 3
15 28 65 64 76 94 95 97 96 96 96 96 96 97 98 98 97 96 96 97 92 91 86 92 96 94 86 78 78 88 90 84 75 55 41 15 8 5 4 3 2 2 2
17 16 23 24 24 32 85 94 96 96 97 96 97 96 96 97 97 97 98 96 97 97 99 95 87 93 79 74 75 76 84 86 81 72 53 18 11 6 4 3 3 2 2
17 17 16 19 20 22 26 61 62 95 95 97 96 96 96 96 97 96 96 97 97 97 99 94 99 86 79 79 73 77 86 90 84 72 57 22 20 17 8 3 3 3 3
16 16 16 18 21 25 23 24 30 20 92 95 94 96 95 95 95 97 98 98 96 98 97 91 97 98 94 95 94 94 94 96 87 67 41 34 44 44 25 10 8 6 3
17 16 15 16 18 26 27 22 29 17 24 77 55 46 97 97 97 96 93 96 97 98 97 94 98 97 96 96 94 93 95 99 96 76 63 59 65 70 63 53 17 5 3
21 20 18 15 14 13 25 38 36 25 20 24 48 38 64 89 93 92 95 94 95 90 81 87 92 96 95 92 96 90 64 66 74 91 94 81 89 86 54 15 6 4 3
21 20 19 18 18 15 14 15 22 37 40 28 21 18 18 37 70 67 60 79 93 93 81 78 91 98 97 94 95 97 93 76 44 24 23 31 30 6 5 5 6 5 4
36 28 24 21 19 18 17 15 13 15 30 45 37 26 22 19 18 25 22 23 54 88 97 87 80 81 96 90 96 90 88 78 77 26 10 9 6 5 4 4 5 5 4
48 41 35 30 27 25 22 18 16 15 14 18 38 55 47 32 24 21 18 18 21 30 55 86 96 92 80 74 89 94 76 58 40 15 14 12 6 4 4 4 4 4 4
53 47 45 40 34 29 26 25 24 19 17 17 19 24 42 59 57 43 28 24 22 24 25 30 42 62 89 95 88 82 82 59 38 17 10 8 7 6 6 6 6 6 6
55 50 45 43 41 38 33 30 28 28 28 24 22 21 22 30 59 69 68 48 32 29 27 27 30 27 50 76 95 92 80 80 68 61 39 48 36 28 21 20 18 20 22
80 69 51 34 25 27 34 36 33 31 31 32 32 27 27 28 30 39 52 61 66 54 37 32 32 32 34 36 50 83 96 90 72 77 74 80 77 75 58 39 30 27 25
66 72 75 77 72 56 35 23 24 33 39 39 38 37 34 31 32 34 35 45 60 74 70 56 44 38 35 33 32 35 40 54 78 97 94 89 72 49 37 43 54 48 30
57 56 58 63 71 74 70 66 53 34 20 24 37 44 51 53 47 37 34 39 40 49 58 76 83 86 68 49 41 37 35 36 37 40 54 73 82 80 87 91 79 63 50
34 36 41 44 49 53 57 68 72 65 52 37 26 21 24 36 45 48 51 55 59 52 58 63 67 77 84 90 88 82 72 60 53 53 55 46 40 34 33 41 48 59 57
Wind_Speed
50 50 47 48 46 44 41 38 37 36 36 34 33 32 30 28 27 26 25 23 22 21 19 18 17 17 16 16 16 17 18 18 19 22 21 19 19 16 14 14 15 12 9
58 53 50 49 48 47 46 44 41 40 39 37 35 34 32 31 30 29 28 27 25 24 22 20 21 20 19 18 18 19 19 20 20 19 22 20 17 16 15 13 12 10 10
45 51 47 49 50 49 49 47 45 44 42 41 40 38 36 35 34 33 32 30 29 27 27 24 23 23 22 20 20 20 20 20 20 20 21 22 20 16 14 11 11 11 9
64 57 54 54 57 53 55 52 49 48 46 45 45 43 41 40 39 38 35 34 31 29 29 27 27 26 26 24 22 22 22 21 21 20 21 20 20 18 16 11 10 9 9
52 62 58 52 60 54 52 53 53 51 49 48 48 47 45 44 42 41 39 37 34 33 32 33 32 31 29 27 25 24 23 23 21 21 21 20 18 17 15 13 11 11 11
53 50 45 42 59 61 53 53 53 54 51 49 48 49 48 44 43 42 40 38 38 36 37 36 36 35 32 29 27 27 25 24 23 23 22 21 18 17 16 15 12 9 9
64 54 51 57 51 50 59 53 50 51 56 49 52 52 50 51 49 46 43 41 39 38 39 39 39 39 35 33 30 30 28 26 26 25 24 23 23 21 17 16 15 13 12
62 59 66 55 52 47 53 52 52 52 56 48 47 49 49 48 49 53 49 46 42 41 42 42 42 40 37 35 34 33 31 30 29 28 27 26 26 25 23 20 19 20 19
65 63 61 60 62 58 53 50 53 49 49 51 52 53 48 54 47 48 52 44 45 45 44 43 44 40 37 36 35 34 35 33 33 31 30 30 30 28 27 26 24 23 25
63 69 56 51 60 58 62 61 58 59 54 59 53 55 56 52 55 49 43 45 47 51 52 47 45 43 41 41 39 39 38 37 38 36 35 34 33 33 31 31 30 28 27
61 68 76 70 48 50 60 60 64 55 57 54 56 55 58 59 57 59 63 58 43 47 47 45 55 54 48 47 44 43 44 41 42 43 40 39 38 38 35 34 35 33 32
63 62 65 63 64 60 51 52 53 53 52 56 57 59 59 63 64 62 58 63 58 53 54 55 54 56 54 52 48 47 47 48 47 49 47 43 42 40 39 39 38 38 37
60 60 63 56 55 56 68 58 48 50 58 54 53 58 56 61 66 60 63 65 63 59 58 62 59 61 56 55 55 52 54 53 54 53 53 47 45 42 42 44 42 41 42
60 59 60 59 55 55 53 59 58 58 53 49 46 44 49 59 53 64 63 61 63 61 61 61 64 64 59 52 51 53 54 57 58 58 56 50 45 43 45 46 47 45 46
61 59 58 57 57 54 57 56 57 58 64 60 59 54 51 55 45 43 53 61 63 63 62 58 59 62 59 56 58 58 57 61 59 60 56 51 50 49 49 49 50 50 49
62 60 59 58 58 57 55 57 60 56 57 64 61 60 56 57 57 57 49 46 52 61 69 68 71 71 67 64 60 60 57 62 64 62 58 57 57 59 57 54 54 55 53
61 60 59 59 60 60 58 56 56 56 55 57 62 63 70 72 70 76 66 69 69 56 55 58 62 70 71 62 61 55 56 56 59 61 62 60 60 59 59 59 57 57 56
62 62 61 60 58 57 57 59 60 59 57 56 57 58 58 61 67 66 67 69 71 52 53 53 55 63 69 69 70 59 54 55 56 58 58 60 60 58 58 57 57 58 57
61 61 61 60 59 58 59 59 59 59 60 60 59 59 58 57 58 59 59 54 57 54 46 50 55 53 60 67 63 59 55 53 54 55 56 56 57 58 57 56 56 58 58
61 62 63 63 62 61 60 58 59 60 60 61 61 61 60 59 58 58 57 56 55 53 51 51 56 57 56 57 59 66 56 53 55 56 56 57 57 56 57 56 57 57 58
62 62 63 64 65 66 65 63 62 60 60 61 61 61 60 60 61 61 60 59 58 57 56 55 58 60 63 60 61 61 62 57 59 57 58 60 59 60 60 60 60 60 61
61 64 65 65 65 66 66 67 66 65 63 61 61 62 61 62 61 60 61 63 63 62 61 60 60 61 65 66 63 63 67 64 65 65 60 61 60 62 63 64 65 66 66
62 62 62 61 62 64 66 67 67 68 68 67 65 63 63 64 64 63 63 64 65 67 68 66 65 65 65 67 69 68 68 69 74 73 69 66 69 69 70 70 70 70 70
66 65 65 65 64 64 63 63 65 67 68 69 70 69 67 66 65 65 65 65 66 66 69 69 71 71 71 72 71 71 71 72 72 73 74 71 72 71 71 73 76 77 77
67 68 68 68 67 67 66 66 66 65 64 66 69 69 69 70 69 68 67 67 68 67 68 70 72 74 76 76 76 76 76 75 73 75 77 76 75 76 79 80 81 82 82
68 68 68 69 68 69 70 70 69 67 65 66 66 67 68 69 70 70 70 71 70 70 68 69 70 71 72 73 75 77 78 79 79 78 79 78 77 78 78 79 78 78 78
Wind_Direction
236 234 234 237 236 236 237 235 237 238 241 241 243 244 245 247 248 252 255 259 266 267 262 274 279 294 291 286 286 290 296 300 310 318 326 335 340 348 342 329 329 331 343
232 231 234 234 236 235 236 236 236 239 242 243 243 243 246 247 249 252 258 265 263 264 260 266 275 287 284 278 277 281 290 295 301 312 319 328 334 343 344 334 326 324 325
217 228 234 231 234 234 236 235 237 236 239 242 243 246 247 249 251 255 260 263 265 261 259 260 267 280 275 267 269 271 282 288 296 305 314 321 329 335 343 337 319 314 314
223 224 231 240 238 234 236 238 237 236 239 241 245 247 248 249 253 257 258 261 259 259 258 257 261 267 266 260 258 265 272 278 287 296 305 312 319 329 339 338 305 294 293
208 220 218 231 228 233 234 238 239 241 241 241 244 247 249 253 255 255 257 257 258 259 256 255 254 258 258 258 256 259 266 272 278 285 292 301 306 310 322 331 319 285 283
213 210 210 222 231 233 230 235 241 242 245 246 244 249 250 250 253 255 255 255 258 259 257 252 253 254 251 252 253 254 260 268 270 274 281 287 288 289 296 304 308 317 305
225 215 220 245 228 227 228 234 238 239 244 249 247 246 249 256 253 250 252 257 259 256 257 252 251 253 251 251 252 251 255 258 265 268 271 274 278 275 277 285 282 282 287
253 254 236 244 229 234 220 228 233 228 226 244 244 246 253 256 256 250 251 255 255 255 257 250 249 250 250 255 253 253 252 254 259 263 265 267 270 270 271 271 275 270 272
255 258 259 255 242 240 234 231 226 231 222 229 241 244 241 253 250 247 252 249 250 249 253 251 248 249 250 253 255 255 252 254 256 257 260 264 264 264 265 267 268 270 270
254 254 250 255 245 246 243 242 238 242 241 236 244 239 242 243 245 246 220 254 249 247 255 248 247 249 252 254 255 258 254 253 256 257 259 260 263 264 261 262 263 265 265
251 254 255 252 248 252 247 247 241 241 239 237 238 234 240 246 249 244 244 241 254 250 239 250 256 251 253 252 252 254 256 257 258 257 258 260 259 260 260 260 261 263 265
251 251 255 259 263 254 249 245 247 246 247 242 238 236 243 242 245 247 240 238 250 254 250 254 258 251 253 249 251 250 255 258 257 258 260 256 257 258 260 259 259 260 261
251 253 253 255 254 261 260 258 252 244 235 237 238 242 239 237 238 238 240 247 243 246 254 250 252 254 251 248 248 249 251 254 257 257 256 254 254 256 259 259 258 258 261
251 251 253 255 255 254 257 259 261 252 242 241 242 250 255 246 250 249 247 247 250 244 242 240 248 245 247 245 244 247 249 251 254 255 254 250 251 253 256 257 260 260 259
250 251 251 253 256 254 253 253 257 260 249 258 264 265 261 244 240 254 244 241 241 235 232 235 234 240 246 243 246 247 249 249 248 249 249 247 253 255 256 257 257 259 260
249 250 251 251 253 255 253 252 253 252 256 259 262 261 247 237 253 266 250 247 251 240 229 232 236 242 245 245 245 250 247 247 248 248 248 250 253 255 257 258 260 259 259
247 248 249 249 249 251 254 254 253 253 251 250 253 258 263 263 268 267 264 255 272 270 265 266 268 261 252 247 248 246 245 248 251 253 252 254 255 256 257 257 258 257 258
245 247 249 250 250 250 251 253 254 255 255 254 252 252 252 257 264 268 273 272 278 274 272 271 271 267 262 260 250 247 249 248 250 252 253 254 256 257 258 257 257 257 258
244 245 247 248 249 250 250 251 252 252 253 254 254 254 255 255 255 259 263 266 270 273 262 260 261 264 261 252 247 245 249 256 255 255 254 255 256 257 257 256 257 258 258
247 246 246 247 248 249 250 251 251 251 252 252 252 251 252 253 255 256 258 260 261 260 261 260 259 261 262 264 259 252 246 256 259 256 258 259 258 257 257 257 257 258 260
249 248 248 248 249 250 250 252 252 253 253 252 253 253 253 253 253 254 255 257 257 259 258 254 255 257 258 259 259 257 250 251 256 259 258 258 259 259 259 259 261 261 261
248 249 250 250 250 250 250 251 252 253 254 255 255 254 254 254 253 253 254 255 256 257 257 257 256 256 259 261 259 256 253 251 254 255 255 263 260 262 262 262 262 263 264
248 249 250 251 251 251 250 250 251 252 253 254 254 254 254 254 254 254 254 254 254 255 256 257 256 256 257 259 261 260 257 256 254 257 257 262 265 265 267 269 268 268 269
252 251 251 252 252 253 253 252 251 251 252 253 254 255 256 256 256 256 256 256 256 256 256 256 256 256 257 257 257 259 260 260 261 263 262 262 262 267 268 268 269 270 270
252 253 253 253 253 253 254 254 254 254 254 254 253 253 255 256 257 258 258 258 257 257 257 258 257 257 257 257 258 258 258 259 259 260 260 263 265 265 265 267 270 272 274
253 253 253 253 253 254 254 254 254 255 255 256 256 256 255 256 256 257 257 259 260 261 260 259 259 259 260 261 260 260 260 261 261 262 262 262 262 262 262 265 267 268 269